This is the latest recevied weather packets stored in our database for station/object KC9GSD. If no packets are shown the sender has not sent any weather packets the latest 10 day(s).
| Time | Temp. | Humidity | Pressure | Rain* | Wind** | Luminosity | Snow |
|---|---|---|---|---|---|---|---|
| 1777062945 | 25.56° C | 52% | 1010.5 hPa | 0 mm | - | 246 W/m² | - |
| 1777062643 | 25.56° C | 50% | 1010.7 hPa | 0 mm | - | 350 W/m² | - |
| 1777062340 | 26.67° C | 52% | 1010.7 hPa | 0 mm | - | 460 W/m² | - |
| 1777062038 | 26.67° C | 46% | 1010.9 hPa | 0 mm | - | 622 W/m² | - |
| 1777061734 | 26.67° C | 55% | 1010.9 hPa | 0 mm | - | 486 W/m² | - |
| 1777061430 | 27.22° C | 48% | 1010.9 hPa | 0 mm | - | 406 W/m² | - |
| 1777061126 | 27.22° C | 48% | 1011 hPa | 0 mm | - | 259 W/m² | - |
| 1777060821 | 26.67° C | 48% | 1011.2 hPa | 0 mm | - | 580 W/m² | - |
| 1777060517 | 26.11° C | 57% | 1011.3 hPa | 0 mm | - | 599 W/m² | - |
| 1777060213 | 25° C | 58% | 1011.4 hPa | 0 mm | - | 481 W/m² | - |
| 1777059909 | 25° C | 57% | 1011.4 hPa | 0 mm | - | 184 W/m² | - |
| 1777059605 | 26.11° C | 52% | 1011.4 hPa | 0 mm | - | 182 W/m² | - |
| 1777059303 | 25.56° C | 50% | 1011.6 hPa | 0 mm | - | 772 W/m² | - |
| 1777058997 | 26.67° C | 52% | 1011.6 hPa | 0 mm | - | 513 W/m² | - |
| 1777058698 | 26.67° C | 48% | 1011.6 hPa | 0 mm | - | 921 W/m² | - |
| 1777058394 | 27.22° C | 52% | 1011.7 hPa | 0 mm | - | 339 W/m² | - |
| 1777058091 | 25.56° C | 59% | 1011.8 hPa | 0 mm | - | 864 W/m² | - |
| 1777057786 | 25° C | 54% | 1011.8 hPa | 0 mm | - | 330 W/m² | - |
| 1777057481 | 25.56° C | 50% | 1011.9 hPa | 0 mm | - | 168 W/m² | - |
| 1777057177 | 25.56° C | 53% | 1011.8 hPa | 0 mm | - | 863 W/m² | - |
| 1777056873 | 25.56° C | 56% | 1011.9 hPa | 0 mm | - | 858 W/m² | - |
| 1777056573 | 24.44° C | 57% | 1012 hPa | 0 mm | - | 300 W/m² | - |
| 1777056273 | 24.44° C | 55% | 1011.9 hPa | 0 mm | - | 255 W/m² | - |
| 1777055970 | 23.33° C | 62% | 1012.1 hPa | 0 mm | - | 218 W/m² | - |
| 1777055667 | 23.33° C | 61% | 1012.3 hPa | 0 mm | - | 116 W/m² | - |
* Rain latest hour (hover to see other rain measurements)
** Current wind speed in m/s (hover to see current wind gust speed)